Weather History for Hayden, CO

Change the Weather History Date:

Tuesday, May 12, 2009

  Actual Average Record
Temperature  
Mean Temperature 60 °F -  
Max Temperature 71 °F 65 °F 85 °F (1960)
Min Temperature 48 °F 34 °F 19 °F (1953)
Degree Days  
Heating Degree Days 6    
Growing Degree Days 10 (Base 50)    
Moisture  
Dew Point 32 °F    
Average Humidity 37    
Maximum Humidity 66    
Minimum Humidity 18    
Precipitation  
Precipitation 0.00 in - - ()
Sea Level Pressure  
Sea Level Pressure 29.85 in    
Wind  
Wind Speed 11 mph (SW)    
Max Wind Speed 31 mph    
Max Gust Speed 52 mph    
Visibility 10 miles    
Events      
Averages and records for this station are not official NWS values.
T = Trace of Precipitation, MM = Missing Value Source: NWS Daily Summary

Daily Weather History Graph

Daily Weather History Graph

Search for Another Location

Airport:

Trip Planner

Search our weather history database for the weather conditions in past years. The results will help you decide how hot, cold, wet, or windy it might be!

Date:

Astronomy

May. 12, 2009 Rise Set
Actual Time 5:55 AM MDT 8:15 PM MDT
Civil Twilight 5:24 AM MDT 8:46 PM MDT
Nautical Twilight 4:46 AM MDT 9:24 PM MDT
Astronomical Twilight 4:04 AM MDT 10:06 PM MDT
Moon 11:56 PM MDT (5/12) 8:09 AM MDT (5/12)
Length of Visible Light 15h 22m
Length of Day
14h 20m
Waning Gibbous, 88% of the Moon is Illuminated
May 12
Waning Gibbous
May 17
Last Quarter
May 24
New
May 30
First Quarter
Jun 7
Full

Hourly Weather History & Observations

Time (MDT) Temp. Dew Point Humidity Pressure Visibility Wind Dir Wind Speed Gust Speed Precip Events Conditions
12:15 AM 55.4 °F 30.2 °F 38% 29.97 in 10.0 mi WNW 10.4 mph - N/A   Partly Cloudy
12:35 AM 55.4 °F 30.2 °F 38% 29.97 in 10.0 mi WNW 5.8 mph - N/A   Scattered Clouds
12:55 AM 53.6 °F 30.2 °F 41% 29.97 in 10.0 mi SSW 5.8 mph - N/A   Overcast
1:15 AM 55.4 °F 32.0 °F 41% 29.97 in 10.0 mi West 5.8 mph - N/A   Mostly Cloudy
1:35 AM 55.4 °F 30.2 °F 38% 29.96 in 10.0 mi NW 3.5 mph - N/A   Mostly Cloudy
1:55 AM 55.4 °F 30.2 °F 38% 29.96 in 10.0 mi Calm Calm - N/A   Mostly Cloudy
2:15 AM 53.6 °F 30.2 °F 41% 29.96 in 10.0 mi South 5.8 mph - N/A   Overcast
2:35 AM 55.4 °F 30.2 °F 38% 29.96 in 10.0 mi Calm Calm - N/A   Overcast
2:55 AM 53.6 °F 33.8 °F 47% 29.96 in 10.0 mi Calm Calm - N/A   Overcast
3:15 AM 53.6 °F 33.8 °F 47% 29.97 in 10.0 mi WSW 3.5 mph - N/A   Overcast
3:35 AM 51.8 °F 35.6 °F 54% 29.95 in 10.0 mi SE 6.9 mph - N/A   Overcast
3:55 AM 51.8 °F 33.8 °F 50% 29.95 in 10.0 mi NE 9.2 mph - N/A   Scattered Clouds
4:15 AM 51.8 °F 33.8 °F 50% 29.95 in 10.0 mi East 6.9 mph - N/A   Scattered Clouds
4:35 AM 53.6 °F 35.6 °F 51% 29.95 in 10.0 mi ESE 9.2 mph - N/A   Overcast
4:55 AM 51.8 °F 35.6 °F 54% 29.95 in 10.0 mi ESE 6.9 mph - N/A   Overcast
5:15 AM 50.0 °F 35.6 °F 58% 29.93 in 10.0 mi ESE 13.8 mph - N/A   Mostly Cloudy
5:35 AM 48.2 °F 35.6 °F 62% 29.93 in 10.0 mi ESE 9.2 mph - N/A   Partly Cloudy
5:55 AM 48.2 °F 37.4 °F 66% 29.92 in 10.0 mi ESE 11.5 mph 17.3 mph N/A   Partly Cloudy
6:15 AM 50.0 °F 35.6 °F 58% 29.92 in 10.0 mi ESE 10.4 mph - N/A   Scattered Clouds
6:35 AM 48.2 °F 35.6 °F 62% 29.91 in 10.0 mi SE 8.1 mph - N/A   Clear
6:55 AM 48.2 °F 35.6 °F 62% 29.92 in 10.0 mi ESE 10.4 mph - N/A   Clear
7:35 AM 51.8 °F 37.4 °F 58% 29.91 in 9.0 mi ESE 8.1 mph - N/A   Clear
7:55 AM 53.6 °F 39.2 °F 58% 29.91 in 10.0 mi ESE 8.1 mph - N/A   Clear
8:15 AM 55.4 °F 37.4 °F 51% 29.90 in 10.0 mi East 11.5 mph - N/A   Partly Cloudy
8:35 AM 57.2 °F 39.2 °F 51% 29.89 in 10.0 mi ESE 9.2 mph - N/A   Clear
8:55 AM 59.0 °F 37.4 °F 45% 29.89 in 10.0 mi ESE 5.8 mph - N/A   Clear
9:15 AM 60.8 °F 37.4 °F 42% 29.88 in 10.0 mi East 4.6 mph - N/A   Scattered Clouds
9:35 AM 62.6 °F 37.4 °F 39% 29.87 in 10.0 mi West 4.6 mph - N/A   Partly Cloudy
9:55 AM 64.4 °F 37.4 °F 37% 29.86 in 10.0 mi WNW 10.4 mph 16.1 mph N/A   Clear
10:15 AM 66.2 °F 35.6 °F 32% 29.85 in 10.0 mi West 20.7 mph 27.6 mph N/A   Clear
10:35 AM 66.2 °F 33.8 °F 30% 29.83 in 10.0 mi West 16.1 mph 23.0 mph N/A   Clear
10:55 AM 68.0 °F 33.8 °F 28% 29.82 in 10.0 mi West 19.6 mph 33.4 mph N/A   Clear
11:15 AM 69.8 °F 33.8 °F 27% 29.82 in 10.0 mi WSW 17.3 mph 27.6 mph N/A   Clear
11:35 AM 68.0 °F 33.8 °F 28% 29.80 in 10.0 mi West 24.2 mph 31.1 mph N/A   Scattered Clouds
11:55 AM 69.8 °F 33.8 °F 27% 29.79 in 10.0 mi WSW 26.5 mph 33.4 mph N/A   Mostly Cloudy
12:15 PM 66.2 °F 30.2 °F 26% 29.78 in 10.0 mi SW 19.6 mph 40.3 mph N/A   Mostly Cloudy
12:35 PM 69.8 °F 30.2 °F 23% 29.77 in 10.0 mi WSW 21.9 mph 34.5 mph N/A   Mostly Cloudy
12:55 PM 68.0 °F 28.4 °F 23% 29.77 in 10.0 mi WSW 20.7 mph 33.4 mph N/A   Mostly Cloudy
1:15 PM 69.8 °F 30.2 °F 23% 29.76 in 10.0 mi WSW 27.6 mph 34.5 mph N/A   Overcast
1:35 PM 69.8 °F 28.4 °F 21% 29.75 in 10.0 mi West 29.9 mph 41.4 mph N/A   Overcast
1:55 PM 69.8 °F 28.4 °F 21% 29.75 in 10.0 mi West 25.3 mph 39.1 mph N/A   Overcast
2:15 PM 66.2 °F 26.6 °F 23% 29.75 in 10.0 mi West 25.3 mph 51.8 mph N/A   Overcast
2:35 PM 69.8 °F 32.0 °F 25% 29.75 in 10.0 mi SW 31.1 mph 40.3 mph N/A   Mostly Cloudy
2:55 PM 69.8 °F 30.2 °F 23% 29.73 in 10.0 mi WSW 25.3 mph 35.7 mph N/A   Mostly Cloudy
3:15 PM 71.6 °F 26.6 °F 19% 29.72 in 10.0 mi WSW 31.1 mph 44.9 mph N/A   Mostly Cloudy
3:35 PM 69.8 °F 26.6 °F 20% 29.72 in 10.0 mi West 23.0 mph 35.7 mph N/A   Mostly Cloudy
3:55 PM 69.8 °F 26.6 °F 20% 29.71 in 10.0 mi WSW 21.9 mph 32.2 mph N/A   Mostly Cloudy
4:15 PM 71.6 °F 26.6 °F 19% 29.71 in 10.0 mi WSW 25.3 mph 35.7 mph N/A   Mostly Cloudy
4:35 PM 69.8 °F 26.6 °F 20% 29.71 in 10.0 mi West 15.0 mph 24.2 mph N/A   Partly Cloudy
4:55 PM 69.8 °F 24.8 °F 18% 29.70 in 10.0 mi West 24.2 mph 38.0 mph N/A   Scattered Clouds
5:15 PM 69.8 °F 24.8 °F 18% 29.69 in 10.0 mi West 19.6 mph 24.2 mph N/A   Scattered Clouds
5:35 PM 68.0 °F 24.8 °F 20% 29.70 in 10.0 mi West 13.8 mph 26.5 mph N/A   Scattered Clouds
5:55 PM 66.2 °F 26.6 °F 23% 29.70 in 10.0 mi West 20.7 mph 25.3 mph N/A   Scattered Clouds
6:15 PM 66.2 °F 24.8 °F 21% 29.71 in 10.0 mi WNW 20.7 mph 27.6 mph N/A   Mostly Cloudy
6:35 PM 64.4 °F 24.8 °F 22% 29.72 in 10.0 mi NW 20.7 mph 27.6 mph N/A   Partly Cloudy
6:55 PM 62.6 °F 26.6 °F 26% 29.73 in 10.0 mi NNW 20.7 mph - N/A   Clear
7:15 PM 62.6 °F 26.6 °F 26% 29.74 in 10.0 mi NNW 13.8 mph 19.6 mph N/A   Clear
7:35 PM 60.8 °F 26.6 °F 27% 29.75 in 10.0 mi WNW 5.8 mph - N/A   Clear
7:55 PM 60.8 °F 26.6 °F 27% 29.75 in 10.0 mi SSW 5.8 mph - N/A   Clear
8:15 PM 59.0 °F 30.2 °F 34% 29.76 in 10.0 mi SSW 3.5 mph - N/A   Clear
8:35 PM 59.0 °F 28.4 °F 31% 29.76 in 10.0 mi SW 5.8 mph - N/A   Clear
8:55 PM 59.0 °F 28.4 °F 31% 29.77 in 10.0 mi SW 4.6 mph - N/A   Clear
9:15 PM 57.2 °F 30.2 °F 36% 29.77 in 10.0 mi WSW 3.5 mph - N/A   Clear
9:35 PM 57.2 °F 28.4 °F 33% 29.79 in 10.0 mi WNW 6.9 mph - N/A   Clear
9:55 PM 55.4 °F 28.4 °F 36% 29.81 in 10.0 mi West 8.1 mph - N/A   Clear
10:15 PM 55.4 °F 24.8 °F 31% 29.82 in 10.0 mi WNW 9.2 mph - N/A   Clear
10:35 PM 53.6 °F 24.8 °F 33% 29.83 in 10.0 mi West 12.7 mph - N/A   Clear
10:55 PM 53.6 °F 24.8 °F 33% 29.84 in 10.0 mi WNW 15.0 mph 18.4 mph N/A   Clear
11:15 PM 53.6 °F 21.2 °F 28% 29.85 in 10.0 mi WNW 13.8 mph 19.6 mph N/A   Clear
11:35 PM 53.6 °F 23.0 °F 30% 29.86 in 10.0 mi WNW 11.5 mph 20.7 mph N/A   Partly Cloudy
11:55 PM 50.0 °F 24.8 °F 37% 29.88 in 10.0 mi WSW 6.9 mph - N/A   Clear